www.pogodaiklimat.ru

Погода и климат >> Архив погоды >> Россия >> город Москва >> Москва


АРХИВ ПОГОДЫ в Москве

Время (UTC), дата Ветер
(напр.,м/с)
 
Видим.   Явления Облачность Т
(С)
Тd
(С)
f
(%)
Тe
(С)
Тes
(С)
Комфортность P
(гПа)
Po
(гПа)
Тmin
(С)
Tmax
(С)
R
(мм)
R24
(мм)
S
(см)
15 8.08 С 3 10 км 5/5 600 м
[Sc diur, vesp]
+21.6 +6.7 38 +22 +23 комфорт 1018.8 1000.4
18 8.08 С 1 10 км ясно +19.7 +7.9 46 +22 +22 комфорт 1020.1 1002.1 +22.5
21 8.08 штиль 0 н/о ясно +13.2 +10.2 82 +13 +13 прохладно 1022.4 1003.4
00 9.08 штиль 0 н/о дымка ясно +11.2 +9.8 91 +11 +11 прохладно 1023.8 1004.6
03 9.08 штиль 0 4000 м дымка ясно +11.3 +10.5 95 +11 +11 холодно 1025.5 1006.3 +10.5
06 9.08 СВ 1 10 км 4/0
[Ac cast]
+19.7 +8.6 49 +22 +27 комфорт 1026.3 1007.7 +10.5
09 9.08 С 1 10 км 8/8 600 м
[Cu Sc]
+23.5 +8.0 37 +24 +27 комфорт 1026.1 1007.7
12 9.08 С 2 10 км 5/4 600 м
[Cu Sc Ci fib]
+24.9 +6.8 31 +25 +30 комфорт 1025.5 1007.1
15 9.08 С 2 10 км 4/4 600 м
[Sc diur, vesp]
+24.3 +7.3 34 +25 +26 комфорт 1025.4 1007.0
18 9.08 штиль 0 10 км ясно +18.2 +11.0 63 +18 +18 по сезону 1026.2 1007.5 +25.4
21 9.08 штиль 0 н/о ясно +14.5 +11.4 82 +14 +14 прохладно 1027.1 1008.1
00 10.08 штиль 0 н/о дымка ясно +13.1 +11.2 88 +13 +13 прохладно 1028.0 1008.9
03 10.08 штиль 0 4000 м дымка 3/0
[Ci fib]
+13.4 +11.7 89 +13 +14 прохладно 1028.7 1009.6 +12.5
06 10.08 СЗ 1 10 км 1/0
[Ci fib]
+22.8 +11.5 49 +25 +33 комфорт 1028.3 1009.8 +12.5
09 10.08 ЮЗ 1 10 км 3/3 1000 м
[Cu hum]
+26.3 +10.0 36 +27 +37 жарко 1027.6 1009.3
12 10.08 СЗ 1 10 км 4/4 1000 м
[Cu hum]
+27.9 +10.1 33 +28 +35 жарко 1026.0 1007.9
15 10.08 штиль 0 10 км 3/3 1000 м
[Cu hum]
+27.2 +10.1 34 +28 +29 жарко 1025.1 1006.9
18 10.08 штиль 0 10 км ясно +20.9 +13.0 61 +23 +23 комфорт 1025.0 1006.5 +28.3
21 10.08 штиль 0 н/о ясно +18.3 +13.1 72 +19 +19 тепло 1025.5 1006.8
00 11.08 штиль 0 н/о ясно +17.2 +12.1 72 +17 +17 тепло 1026.0 1007.3
03 11.08 штиль 0 10 км ясно +15.3 +10.6 74 +15 +16 по сезону 1025.3 1006.6 +14.5
06 11.08 З 1 10 км ясно +23.4 +14.7 58 +27 +35 душно 1024.9 1006.7 +14.5
09 11.08 З 2 10 км 1/0
[Ci fib]
+26.4 +12.0 41 +28 +40 жарко 1023.4 1005.3
12 11.08 З 2 10 км ясно +28.0 +11.8 37 +29 +38 жарко 1021.7 1003.8
15 11.08 З 1 10 км ясно +26.6 +11.8 40 +28 +30 жарко 1019.6 1001.8
18 11.08 штиль 0 10 км ясно +21.7 +13.4 59 +24 +24 комфорт 1019.5 1001.3 +28.2
21 11.08 штиль 0 н/о ясно +17.7 +12.8 73 +18 +18 тепло 1019.1 1000.5
00 12.08 штиль 0 н/о ясно +16.9 +12.0 73 +17 +17 тепло 1018.2 999.5
03 12.08 штиль 0 10 км 1/0
[Ci fib]
+14.9 +12.4 85 +15 +15 по сезону 1017.3 998.5 +14.3
06 12.08 ЮЗ 1 10 км 1/0
[Ci fib]
+24.2 +10.7 43 +25 +33 комфорт 1015.3 997.1 +14.3
09 12.08 ЮЗ 1 10 км 5/0
[Cs]
+26.8 +9.0 33 +27 +40 жарко 1013.8 995.8
12 12.08 Ю 2 10 км 6/4 600 м
[Cu hum Ci fib]
+27.2 +9.3 32 +27 +32 жарко 1011.9 994.0
15 12.08 З 1 10 км 8/8 600 м
[Cu Sc]
+25.8 +10.0 37 +27 +27 жарко 1010.6 992.6
18 12.08 З 1 10 км ясно +22.0 +11.9 53 +24 +24 комфорт 1011.3 993.1 +28.3
21 12.08 З 1 н/о 5/0
[Ac trans]
+19.0 +11.8 63 +21 +21 комфорт 1011.7 993.3
00 13.08 СЗ 1 н/о ясно +17.0 +10.7 66 +18 +18 тепло 1011.6 993.0
03 13.08 З 1 10 км 8/0
[Cs]
+15.9 +8.8 63 +17 +17 по сезону 1011.5 992.9 +15.3
06 13.08 З 1 10 км 8/3 600 м
[Cu hum Cs]
+18.6 +8.7 52 +20 +25 тепло 1011.2 992.7 +15.3
09 13.08 ЮЗ 2 10 км 8/4 600 м
[Cu Sc Ac trans Ci fib]
+21.0 +6.2 38 +23 +27 комфорт 1010.9 992.6
12 13.08 З 1
{10}
10 км 9/6 600 м
[Cu Sc Ac trans Ci]
+21.5 +5.5 35 +22 +25 комфорт 1010.9 992.6
15 13.08 З 2 10 км 8/5 600 м
[Sc diur, vesp Ac trans Ci fib]
+20.6 +7.4 42 +22 +23 комфорт 1010.5 992.2
18 13.08 З 1 10 км 9/0
[Ac trans Ci]
+18.2 +8.7 54 +19 +19 тепло 1011.3 992.8 +22.4
21 13.08 СЗ 1 н/о 9/0
[Ac trans Ci fib]
+17.1 +9.9 63 +18 +18 тепло 1011.6 993.1
00 14.08 штиль 0 н/о ясно +14.8 +10.4 75 +15 +15 по сезону 1012.8 994.1
03 14.08 СЗ 1 10 км ясно +13.7 +11.0 84 +14 +14 по сезону 1014.1 995.3 +13.4
06 14.08 СВ 1 10 км 3/3 600 м
[Cu hum]
+18.3 +11.7 65 +20 +25 тепло 1015.0 996.5 +13.4
09 14.08 З 1 10 км 4/4 1000 м
[Cu hum]
+21.7 +7.7 40 +23 +31 комфорт 1015.2 996.8
12 14.08 З 1 10 км 6/6 1000 м
[Cu hum]
+23.4 +6.1 33 +24 +28 комфорт 1014.5 996.3
15 14.08 З 1 10 км 8/5 1000 м
[Cu hum Ci fib]
+23.7 +6.1 32 +24 +25 комфорт 1014.1 995.9
18 14.08 штиль 0 10 км ясно +17.5 +9.8 61 +18 +18 по сезону 1015.0 996.4 +24.5
21 14.08 штиль 0 н/о 3/3 600 м
[Sc]
+15.2 +11.0 76 +15 +15 по сезону 1015.4 996.7
00 15.08 штиль 0 н/о 6/6 600 м
[Sc]
+17.6 +12.8 73 +18 +18 тепло 1014.5 996.0
03 15.08 штиль 0 10 км 3/3 600 м
[Sc]
+17.2 +12.0 71 +17 +17 по сезону 1013.8 995.3 +15.0
06 15.08 ЮВ 1 10 км 8/0
[Ci]
+22.4 +11.3 49 +25 +31 комфорт 1012.0 993.8 +15.0
09 15.08 Ю 2 10 км 9/6 600 м
[Cu Sc Ac cast]
+22.5 +14.6 61 +26 +28 жарко 1010.3 992.2

 

Местоположение метеостанции Москва (город Москва, Россия): широта 55.83 долгота 37.62 высота над уровнем моря 156 м.

В архиве по умолчанию представлена погода в Москве за последнюю неделю. Архивные данные за месяц целиком и за предыдущие месяцы, начиная с января 2011 года, Вы можете получить, выбрав интересующий диапазон дат из раскрывающегося списка и нажав кнопку "Ввод!".


*Определитесь, кто Вы:
робот инопланетянин человек

Внимание! Время в таблицах - всемирное. Для получения местного времени необходимо прибавить поправку, которая в Москве равна 3 ч.

Смотрите также архив погоды в соседних городах и на ближайших метеорологических станциях:

Погода в Москве (Балчуг) (город Москва, Россия) (9 км)
Погода в Москве (Тушино) (город Москва, Россия) (12 км)
Погода в Долгопрудном (Московская область, Россия) (13 км)
Погода в Москве (Строгино) (город Москва, Россия) (14 км)
Погода в Красногорске (Московская область, Россия) (18 км)
Погода в Шереметьево (Московская область, Россия) (20 км)
Погода в Немчиновке (город Москва, Россия) (21 км)
Погода в Железнодорожном АМС (Московская область, Россия) (23 км)
Погода в Луговой (Московская область, Россия) (26 км)
Погода в Пушкино (Московская область, Россия) (26 км)

Пояснения к столбцам:

Ветер - указаны скорость ветра в м/с - средняя за 10 мин, порывы в срок и между сроками (в фигурных скобках) и направление, откуда дует ветер: С - северный, СВ - северо-восточный, В - восточный, ЮВ - юго-восточный, Ю - южный, ЮЗ - юго-западный, З - западный, СЗ - северо-западный.
Видимость - горизонтальная дальность видимости в метрах или километрах. При видимости от 1 до 10 км при отсутствии осадков обычно наблюдается дымка, при ухудшении видимости до 1 км и менее - туман. В сухую погоду видимость может ухудшаться дымом, пылью или мглою.
Явления - указаны атмосферные явления, наблюдавшиеся в срок или в последний час перед сроком; фигурными скобками обозначены явления, наблюдавшиеся между сроками (за 1-3 часа до срока); квадратными скобками обозначены град или гололедные отложения с указанием их диаметра в мм.
Облачность - указаны через наклонную черту общая и нижняя облачность в баллах и высота нижней границы облаков в метрах; квадратными скобками обозначены формы облаков: Ci - перистые, Cs - перисто-слоистые, Cc - перисто-кучевые, Ac - высококучевые, As - высокослоистые, Sc - слоисто-кучевые, Ns - слоисто-дождевые, Cu - кучевые, Cb - кучево-дождевые. Подробнее классификацию облаков см. в Атласе облаков (PDF).
T - Температура воздуха - температура, измеренная на высоте 2 м над землей.
Td - Температура точки росы - температура, при понижении до которой содержащийся в воздухе водяной пар достигнет насыщения.
f - Относительная влажность воздуха - влажноcть воздуха, измеренная на высоте 2 м над землей.
Te - Эффективная температура - температура, которую ощущает одетый по сезону человек в тени. Характеристика душности погоды. При расчете учитывается влияние влажности воздуха и скорости ветра на теплоощущения человека.
Tes - Эффективная температура на солнце - температура, которую ощущает человек, с поправкой на солнечный нагрев. Характеристика знойности погоды. Зависит от высоты солнца над горизонтом, облачности и скорости ветра. Ночью, в пасмурную погоду, а также при ветре 12 м/с и более поправка равна нулю.
P - Атмосферное давление - приведенное к уровню моря атмосферное давление.
Po - Атмосферное давление - измеренное на уровне метеостанции атмосферное давление.
Tmin - Минимальная температура - минимум температуры воздуха на высоте 2 м над землей.
Tmax - Максимальная температура - максимум температуры воздуха на высоте 2 м над землей.
R - Количество осадков - Количество выпавших осадков за период времени, мм. При наведении курсора мыши на число - период времени, за который выпало указанное количество осадков.
R24 - Количество осадков - Количество выпавших осадков за 24 часа, мм.
S - Снежный покров - Высота снежного покрова, см. При наведении курсора мыши на число - состояние снежного покрова и степень покрытия местности в баллах.